[[{"header":{"parameterUnit":"m.s-1","parameterCategory":1,"la1":30.2991,"la2":30.254,"lo1":-89.0895,"lo2":-89.0444,"dy":0.0017,"dx":0.0017,"nx":28,"ny":28,"refTime":"2024-05-18T03:00:00:Z","depth":0,"parameterNumber":2,"parameterNumberName":"U-component_of_WINDS"},"data":[0,0,0,0,0,0,0,0,0,0,0,0,0,0,0,0,0,0,0,0,0,0,0,0,0,0,0,0,0,0,0,0,0,0,0,0,0,0,0,0,0,0,0,0,0,0,0,0,0,0,0,0,0,0,0,0,0,0,0.0237,0.0234,0,-0.0036,-0.0039,-0.0042,-0.0136,-0.0134,-0.0133,-0.0132,-0.042,-0.0428,-0.0437,0,0,0,0,0,0,0,0,0,0,0,0,0,0.0674,0.0667,0.0237,0.0234,0.023,-0.0035,-0.0039,-0.0043,-0.0136,-0.0134,-0.0133,-0.0132,-0.0417,-0.0427,-0.0438,0,0,0,0,0,0,0,0,0,0,0,0,0,0.0451,0.0664,0.0238,0.0152,0.0142,-0.0035,-0.0039,-0.0044,-0.0136,-0.0134,-0.0133,-0.0131,-0.0413,-0.0426,-0.0439,-0.0553,0,0,-0.0479,-0.0484,0,0,0,0,0,0,0,0,0.0464,0.0435,0.0168,0.0158,0.0146,-0.005,0.0009,-0.0215,-0.0136,-0.0031,-0.0132,-0.013,-0.0299,-0.0321,-0.0376,-0.0566,-0.0579,-0.048,-0.0488,-0.0494,-0.0497,0,0,0,0,0,0,0,0.0479,0.0446,0.0129,0.0164,0.0151,0.0126,0.0096,-0.0034,-0.0171,-0.004,-0.0047,-0.0078,-0.0304,-0.0363,-0.0383,-0.0583,-0.048,-0.0491,-0.0499,-0.0504,-0.0876,-0.0878,0,0,0,0,0,0,0.051,0.046,0.0137,0.0121,0.0312,0.0117,0.0084,0.0011,-0.017,-0.0196,-0.0079,-0.0081,-0.0342,-0.0368,-0.0394,-0.0537,-0.0493,-0.0506,-0.0513,-0.0874,-0.0877,-0.0879,0,0,0,0,0,0,0.052,0.0482,0.0148,0.0288,0.0244,0.0108,0.0027,0.0005,-0.0054,-0.0199,-0.0225,-0.0114,-0.0342,-0.0376,-0.0511,-0.0548,-0.0511,-0.0523,-0.0872,-0.0875,-0.0878,-0.0825,0,0,0,0,0,0,0.0533,0.0486,0.0442,0.0288,0.0237,0.0037,0.0025,-0.0002,-0.0075,-0.0081,-0.0238,-0.0263,-0.0343,-0.0491,-0.0524,-0.0566,-0.0534,-0.0869,-0.0873,-0.0877,-0.0824,-0.0826,-0.0827,0,0,0,0,0,0.0549,0.0465,0.044,0.0402,0.0179,0.0035,0.0006,-0.0082,-0.0078,-0.0124,-0.0216,-0.0258,-0.0538,-0.0504,-0.0542,-0.0588,-0.0867,-0.0872,-0.0876,-0.0823,-0.0825,-0.0827,0,0,0,0,0,0,0.0614,0.0443,0.0413,0.0278,0.0173,0.002,-0.0041,-0.0082,-0.0194,-0.0195,-0.0301,-0.0336,-0.0463,-0.0539,-0.0498,-0.0706,-0.0705,-0.0717,-0.0651,-0.0655,-0.0656,-0.0636,-0.0544,0,0,0,0,0,0.0614,0.0513,0.0368,0.0262,0.0211,0.0095,0.0029,-0.0029,-0.0144,-0.019,-0.0293,-0.0405,-0.0517,-0.059,-0.0703,-0.0834,-0.0869,-0.0884,-0.0886,-0.0886,-0.0897,-0.0969,-0.0977,-0.0894,-0.0894,-0.0894,0,0,0.0609,0.0504,0.0445,0.0273,0.0184,0.0082,0.0057,-0.0052,-0.0129,-0.0208,-0.0341,-0.0419,-0.0551,-0.0684,-0.0748,-0.0752,-0.0926,-0.0892,-0.0892,-0.0902,-0.0975,-0.0982,-0.0989,-0.0897,-0.0897,-0.0896,0,0,0.0549,0.046,0.0363,0.0277,0.0145,0.0069,0.0046,-0.0099,-0.0153,-0.0287,-0.0347,-0.0441,-0.0635,-0.0725,-0.0796,-0.0882,-0.0924,-0.0916,-0.0925,-0.0995,-0.1001,-0.1007,-0.1037,-0.1047,-0.0925,-0.0925,-0.0925,0,0.056,0.0405,0.0318,0.0214,0.0141,0.007,-0.0028,-0.0109,-0.0272,-0.0322,-0.0322,-0.0562,-0.0656,-0.081,-0.083,-0.0885,-0.0915,-0.09,-0.0993,-0.1,-0.1007,-0.1037,-0.1048,-0.0923,-0.0923,-0.0923,-0.0923,0,0.0425,0.0319,0.0257,0.0106,0.0026,-0.0075,-0.0177,-0.0248,-0.0296,-0.0372,-0.0506,-0.062,-0.0755,-0.0795,-0.0846,-0.0955,-0.0953,-0.0971,-0.0973,-0.1011,-0.1041,-0.1053,-0.092,-0.092,-0.0921,-0.0922,0,0,0.0393,0.0202,0.018,0.0113,-0.0035,-0.012,-0.0222,-0.035,-0.0408,-0.0517,-0.0606,-0.0764,-0.078,-0.086,-0.0922,-0.0982,-0.104,-0.0994,-0.0998,-0.0998,-0.1165,-0.115,-0.1162,-0.1068,-0.107,-0.1073,-0.1154,0,0.0315,0.0131,0.0053,-0.0096,-0.0194,-0.0259,-0.0349,-0.0449,-0.0521,-0.0616,-0.0696,-0.0806,-0.082,-0.0868,-0.0931,-0.102,-0.1076,-0.1015,-0.1153,-0.1156,-0.1118,-0.1178,-0.1164,-0.1236,-0.1166,-0.1168,-0.117,0,0.0196,0.0093,-0.0064,-0.0195,-0.024,-0.0318,-0.0439,-0.0528,-0.0643,-0.0691,-0.0776,-0.0833,-0.0943,-0.0934,-0.1087,-0.1043,-0.1104,-0.1155,-0.116,-0.1178,-0.1166,-0.1197,-0.1261,-0.1272,-0.1189,-0.1187,-0.1186,0,0.0191,0.0011,-0.0105,-0.0161,-0.0317,-0.037,-0.0438,-0.055,-0.062,-0.0727,-0.0773,-0.0891,-0.0957,-0.1047,-0.1134,-0.112,-0.1277,-0.1277,-0.1321,-0.1318,-0.1354,-0.135,-0.1428,-0.139,-0.139,-0.139,-0.139,0,0.011,0.0016,-0.0109,-0.0181,-0.0286,-0.0374,-0.0477,-0.055,-0.0647,-0.0735,-0.0799,-0.088,-0.0988,-0.1083,-0.1151,-0.1266,-0.1296,-0.1338,-0.1355,-0.1333,-0.1327,-0.1375,-0.1373,-0.1393,-0.1392,-0.1392,-0.1391,0,0.0083,-0.0004,-0.0135,-0.0269,-0.0305,-0.0377,-0.0493,-0.0565,-0.0637,-0.0746,-0.0777,-0.0891,-0.1005,-0.1099,-0.125,-0.1296,-0.1415,-0.1435,-0.1375,-0.1385,-0.1423,-0.1418,-0.1535,-0.1555,-0.1503,-0.1503,-0.1503,0,0.0037,-0.0036,-0.0176,-0.0237,-0.0302,-0.0401,-0.0471,-0.0559,-0.063,-0.0761,-0.0817,-0.0934,-0.1033,-0.1212,-0.1309,-0.1424,-0.1448,-0.148,-0.1466,-0.1439,-0.1448,-0.1442,-0.1449,-0.1482,-0.1482,-0.1482,-0.1483,0,-0.0036,-0.0074,-0.0172,-0.0282,-0.0363,-0.0456,-0.055,-0.0597,-0.0702,-0.0778,-0.0892,-0.0968,-0.1118,-0.1234,-0.1358,-0.1429,-0.1474,-0.1485,-0.1502,-0.148,-0.1442,-0.1462,-0.1379,-0.1483,-0.1483,-0.1483,-0.1483,-0.1483,-0.0075,-0.0141,-0.0248,-0.0353,-0.0431,-0.0516,-0.0589,-0.0667,-0.0764,-0.089,-0.0936,-0.1053,-0.1162,-0.1332,-0.1403,-0.1496,-0.1502,-0.1526,-0.1532,-0.1537,-0.1533,-0.1425,-0.1519,-0.1519,-0.152,-0.152,-0.152,0,-0.0151,-0.0221,-0.0316,-0.0443,-0.0525,-0.0554,-0.0658,-0.0726,-0.0827,-0.0922,-0.1016,-0.1146,-0.1256,-0.136,-0.1475,-0.153,-0.1553,-0.1558,-0.1555,-0.1571,-0.1522,-0.1496,-0.1537,-0.1537,-0.1537,-0.1537,-0.1537,-0.1537,-0.02,-0.0312,-0.0361,-0.0512,-0.0582,-0.0694,-0.0751,-0.083,-0.0906,-0.1047,-0.1137,-0.1202,-0.1301,-0.1423,-0.1525,-0.1553,-0.1593,-0.1592,-0.1624,-0.1578,-0.1575,-0.1572,-0.1548,-0.1599,-0.1599,-0.1666,-0.1666,-0.1667]},{"header":{"parameterUnit":"m.s-1","parameterCategory":1,"la1":30.2991,"la2":30.254,"lo1":-89.0895,"lo2":-89.0444,"dy":0.0017,"dx":0.0017,"nx":28,"ny":28,"refTime":"2024-05-18T03:00:00:Z","depth":0,"parameterNumber":3,"parameterNumberName":"V-component_of_WINDS"},"data":[0,0,0,0,0,0,0,0,0,0,0,0,0,0,0,0,0,0,0,0,0,0,0,0,0,0,0,0,0,0,0,0,0,0,0,0,0,0,0,0,0,0,0,0,0,0,0,0,0,0,0,0,0,0,0,0,0,0,-2.9351,-2.9352,0,-2.9369,-2.9369,-2.9369,-2.9286,-2.9284,-2.9282,-2.9279,-2.9295,-2.9298,-2.9301,0,0,0,0,0,0,0,0,0,0,0,0,0,-2.9245,-2.9248,-2.9351,-2.9352,-2.9352,-2.9369,-2.9369,-2.9369,-2.9287,-2.9284,-2.9281,-2.9278,-2.9294,-2.9298,-2.9301,0,0,0,0,0,0,0,0,0,0,0,0,0,-2.928,-2.9248,-2.9351,-2.9313,-2.9309,-2.9369,-2.9369,-2.937,-2.9287,-2.9284,-2.928,-2.9277,-2.9293,-2.9297,-2.9301,-2.9398,0,0,-2.9313,-2.9315,0,0,0,0,0,0,0,0,-2.9278,-2.9284,-2.9318,-2.9315,-2.9312,-2.9322,-2.9338,-2.9379,-2.9288,-2.9296,-2.9279,-2.9275,-2.9307,-2.931,-2.9321,-2.9399,-2.94,-2.9314,-2.9316,-2.9318,-2.9319,0,0,0,0,0,0,0,-2.9276,-2.9283,-2.9358,-2.9319,-2.9315,-2.9294,-2.9295,-2.9345,-2.9321,-2.9295,-2.9289,-2.9292,-2.9304,-2.9317,-2.932,-2.94,-2.9314,-2.9317,-2.932,-2.9321,-2.956,-2.9564,0,0,0,0,0,0,-2.9279,-2.9281,-2.9358,-2.9359,-2.9286,-2.9299,-2.93,-2.9322,-2.932,-2.9317,-2.9295,-2.9288,-2.9312,-2.9316,-2.9321,-2.9435,-2.9318,-2.9322,-2.9324,-2.9557,-2.9561,-2.9566,0,0,0,0,0,0,-2.9277,-2.9286,-2.9357,-2.9318,-2.9326,-2.9305,-2.933,-2.9324,-2.9337,-2.9321,-2.9316,-2.9313,-2.9309,-2.9315,-2.938,-2.9435,-2.9323,-2.9327,-2.9552,-2.9558,-2.9563,-2.9665,0,0,0,0,0,0,-2.9274,-2.9286,-2.9323,-2.932,-2.9328,-2.9417,-2.9334,-2.9327,-2.9344,-2.9335,-2.9336,-2.9332,-2.9307,-2.9375,-2.9384,-2.9438,-2.933,-2.9547,-2.9555,-2.9562,-2.9657,-2.9674,-2.9688,0,0,0,0,0,-2.9271,-2.935,-2.9325,-2.9335,-2.9374,-2.942,-2.9424,-2.9394,-2.9349,-2.9386,-2.9376,-2.9332,-2.9427,-2.9382,-2.9392,-2.9448,-2.9543,-2.9552,-2.9561,-2.965,-2.967,-2.9688,0,0,0,0,0,0,-2.9358,-2.9348,-2.9321,-2.9402,-2.9412,-2.9406,-2.9451,-2.9417,-2.944,-2.943,-2.9391,-2.9392,-2.9464,-2.9462,-2.9412,-2.9543,-2.9477,-2.9489,-2.9541,-2.9561,-2.9576,-2.9575,-2.9334,0,0,0,0,0,-2.9387,-2.9426,-2.9415,-2.9487,-2.9494,-2.9472,-2.9491,-2.9467,-2.9476,-2.948,-2.9474,-2.9485,-2.9517,-2.9539,-2.9567,-2.9656,-2.9656,-2.97,-2.9716,-2.9729,-2.9739,-2.9788,-2.9808,-2.9595,-2.9595,-2.9595,0,0,-2.9446,-2.9446,-2.9472,-2.9505,-2.951,-2.9551,-2.9476,-2.9522,-2.9552,-2.9486,-2.9548,-2.9545,-2.9554,-2.9632,-2.9666,-2.9632,-2.9798,-2.974,-2.9751,-2.9754,-2.9799,-2.9819,-2.9837,-2.9601,-2.96,-2.9599,0,0,-2.9576,-2.9579,-2.9641,-2.9648,-2.9658,-2.9643,-2.9659,-2.9658,-2.9654,-2.9715,-2.9667,-2.9702,-2.9758,-2.9767,-2.9779,-2.9915,-2.9877,-2.9926,-3.0008,-3.0056,-3.0073,-3.0087,-3.0137,-3.0155,-2.9936,-2.9936,-2.9936,0,-2.9648,-2.9709,-2.9676,-2.9727,-2.9743,-2.9687,-2.9749,-2.9757,-2.9776,-2.9789,-2.9751,-2.9822,-2.9824,-2.9904,-2.9938,-2.9949,-2.9965,-2.9925,-3.0073,-3.0087,-3.0101,-3.0148,-3.0166,-2.9942,-2.9941,-2.9941,-2.994,0,-2.9798,-2.9841,-2.9889,-2.991,-2.9932,-2.9988,-2.9964,-2.999,-2.9965,-2.9954,-3.0018,-3.0019,-3.0048,-3.0065,-3.004,-3.0143,-3.0122,-3.008,-3.0013,-3.0127,-3.0171,-3.0189,-2.9951,-2.9948,-2.9947,-2.9945,0,0,-2.9981,-2.9986,-3.0004,-3.0014,-3.0022,-3.0054,-3.0109,-3.0138,-3.0161,-3.0176,-3.0221,-3.0271,-3.0233,-3.0247,-3.0222,-3.0265,-3.0374,-3.0217,-3.0217,-3.0247,-3.0489,-3.0521,-3.0543,-3.0349,-3.0352,-3.0355,-3.0489,0,-3.0109,-3.0202,-3.0176,-3.0269,-3.0309,-3.0258,-3.0305,-3.0315,-3.0307,-3.034,-3.0331,-3.0368,-3.0313,-3.0322,-3.0361,-3.0353,-3.0423,-3.0343,-3.0391,-3.0393,-3.0391,-3.0565,-3.0599,-3.0725,-3.0505,-3.0508,-3.051,0,-3.027,-3.0294,-3.0392,-3.0395,-3.0411,-3.0454,-3.048,-3.0512,-3.0523,-3.0514,-3.0532,-3.0499,-3.0553,-3.0487,-3.0561,-3.0507,-3.0525,-3.0525,-3.0529,-3.0532,-3.0459,-3.0574,-3.0764,-3.0784,-3.0536,-3.0534,-3.0532,0,-3.0395,-3.0452,-3.0518,-3.0528,-3.0533,-3.0565,-3.0569,-3.0577,-3.0597,-3.0619,-3.0632,-3.0661,-3.0676,-3.0699,-3.0676,-3.063,-3.0754,-3.0685,-3.0749,-3.075,-3.0777,-3.0776,-3.0974,-3.0788,-3.0788,-3.0788,-3.0787,0,-3.0541,-3.0603,-3.0575,-3.0616,-3.0684,-3.0654,-3.0722,-3.072,-3.0728,-3.0768,-3.0724,-3.0763,-3.073,-3.0765,-3.0747,-3.0812,-3.0819,-3.0814,-3.0809,-3.0818,-3.0819,-3.083,-3.0821,-3.0793,-3.0792,-3.0791,-3.079,0,-3.0692,-3.0675,-3.0745,-3.0745,-3.0747,-3.0798,-3.0798,-3.0836,-3.0826,-3.0877,-3.0887,-3.0872,-3.0911,-3.0891,-3.0931,-3.0919,-3.1004,-3.0986,-3.1001,-3.0996,-3.1061,-3.1056,-3.1273,-3.1301,-3.1097,-3.1099,-3.1101,0,-3.0786,-3.0833,-3.084,-3.0864,-3.0871,-3.0911,-3.0932,-3.0904,-3.0928,-3.0946,-3.0982,-3.1018,-3.1046,-3.1112,-3.1104,-3.1135,-3.1118,-3.1193,-3.1123,-3.1132,-3.1121,-3.1119,-3.1124,-3.1207,-3.1209,-3.1211,-3.1212,0,-3.0956,-3.0946,-3.0978,-3.1009,-3.1036,-3.1058,-3.1077,-3.1099,-3.1072,-3.1101,-3.1142,-3.1164,-3.1206,-3.1244,-3.1271,-3.1275,-3.124,-3.1235,-3.1251,-3.1262,-3.1269,-3.1267,-3.104,-3.123,-3.1228,-3.1227,-3.1226,-3.1225,-3.1081,-3.1122,-3.1134,-3.1172,-3.1183,-3.1203,-3.1239,-3.1235,-3.1269,-3.1302,-3.1284,-3.1332,-3.1344,-3.1378,-3.1387,-3.1424,-3.1395,-3.1418,-3.1424,-3.1431,-3.144,-3.1263,-3.1429,-3.1429,-3.1428,-3.1428,-3.1427,0,-3.1249,-3.1255,-3.1291,-3.1319,-3.135,-3.1316,-3.1335,-3.1363,-3.1407,-3.1421,-3.145,-3.1498,-3.1535,-3.1531,-3.1564,-3.1595,-3.158,-3.1605,-3.1603,-3.1605,-3.1464,-3.1447,-3.1617,-3.1617,-3.1617,-3.1617,-3.1617,-3.1617,-3.134,-3.1407,-3.1399,-3.1472,-3.1477,-3.1525,-3.154,-3.1558,-3.1569,-3.1626,-3.1656,-3.1654,-3.1662,-3.1696,-3.1728,-3.1726,-3.1741,-3.1772,-3.1764,-3.1633,-3.1614,-3.1596,-3.158,-3.1775,-3.1775,-3.1901,-3.1902,-3.1903]}]]